Flag for U.S.A. Weather past 2 weeks in Vista, California, U.S.A.

Now
61 °F

Sunny.


Feels Like: 61 °F
Forecast: 48 / 71 °F
Wind: No wind

Location: McClellan-Palomar Airport

Current Time: Dec 22, 2014 at 9:12:25 AM

Latest Report: Dec 22, 2014 at 8:53 AM


Visibility: 10 mi

Pressure: 30.03 "Hg

Humidity: 70%

Dew point: 51 °F

Location of VistaLocation

Historic Weather in Vista — Graph

°F

Vista temperature yesterday

Maximum temperature yesterday: 65 °F (at 11:53 AM)
Minimum temperature yesterday: 52 °F (at 5:53 AM)
Average temperature yesterday: 58 °F

Past Weeks' High & Low Weather Summary

 TemperatureHumidityPressure
High78 °F (Dec 7, 11:53 AM)93% (Dec 12, 6:53 AM)30.23 "Hg (Dec 12, 6:53 AM)
Low47 °F (Dec 14, 5:53 AM)34% (Dec 9, 11:53 AM)29.87 "Hg (Dec 12, 4:53 AM)
Average58 °F76%30.05 "Hg
* Reported Dec 7 7:53 AM — Dec 22 7:53 AM, Vista, Weather by CustomWeather, © 2014

Note: Actual official high and low records may vary slightly from our data, if they occured in-between our weather recording intervals... More about our weather records

Advertising

Vista weather history for previous 24 hours

 ConditionsComfort  
Time TempWeatherWind HumidityBarometerVisibility
7:53 AM
Dec 22
56 °FSunny.No wind81%30.01 "Hg10 mi
6:53 AM53 °FSunny.5 mph86%30.02 "Hg9 mi
5:53 AM52 °FClear.No wind86%30.01 "Hg10 mi
4:53 AM51 °FClear.3 mph89%30.02 "Hg7 mi
3:53 AM53 °FClear.No wind89%30.01 "Hg7 mi
2:53 AM53 °FClear.3 mph89%30.01 "Hg7 mi
1:53 AM54 °FClear.No wind90%30.02 "Hg7 mi
12:53 AM54 °FFog.No wind90%30.01 "Hg6 mi
11:53 PM
Dec 21
54 °FFog.3 mph93%30.03 "Hg4 mi
10:53 PM55 °FFog.No wind93%30.04 "Hg5 mi
9:53 PM57 °FFog.5 mph87%30.04 "Hg6 mi
8:53 PM58 °FFog.No wind90%30.05 "Hg6 mi
7:53 PM58 °FFog.No wind90%30.05 "Hg6 mi
6:53 PM59 °FClear.No wind87%30.04 "Hg7 mi
5:53 PM60 °FPassing clouds.No wind86%30.04 "Hg10 mi
4:53 PM61 °FClear.3 mph83%30.03 "Hg10 mi
3:53 PM62 °FSunny.6 mph78%30.03 "Hg10 mi
2:53 PM65 °FSunny.7 mph66%30.03 "Hg10 mi
1:53 PM64 °FSunny.8 mph65%30.04 "Hg10 mi
12:53 PM65 °FSunny.5 mph56%30.06 "Hg10 mi
11:53 AM65 °FSunny.5 mph56%30.09 "Hg10 mi
10:53 AM64 °FSunny.3 mph58%30.11 "Hg10 mi
9:53 AM61 °FSunny.No wind67%30.14 "Hg10 mi
Weather by CustomWeather, © 2014

See weather overviewHow to use our weather pages